JST706 YMHB-YMML

Flight info

Callsign JST706
Flight time 1h 4m
Altitude 34000
Route TASUM H111 LT H215 RAZZI W687 ML
Aircraft A320/M-SDE3FGHIRWY/LB1

Departure

Time 2026-04-21 09:16
Airport Hobart International Airport (YMHB)

Arrival

Time 2026-04-21 10:21
Airport Melbourne Airport (YMML)
Time Latitude Longitude Altitude Speed Heading
2026-04-21 08:46 -42.83713 147.50664 24 ft 0 kts 225°
2026-04-21 09:07 -42.83705 147.50674 25 ft 4 kts 225°
2026-04-21 09:08 -42.83687 147.50700 22 ft 4 kts 217°
2026-04-21 09:08 -42.83668 147.50707 23 ft 4 kts 146°
2026-04-21 09:08 -42.83652 147.50689 22 ft 2 kts 135°
2026-04-21 09:08 -42.83639 147.50670 23 ft 0 kts 135°
2026-04-21 09:11 -42.83641 147.50672 23 ft 1 kts 135°
2026-04-21 09:11 -42.83662 147.50702 24 ft 9 kts 135°
2026-04-21 09:12 -42.83701 147.50782 22 ft 11 kts 93°
2026-04-21 09:12 -42.83640 147.50833 22 ft 13 kts 345°
2026-04-21 09:12 -42.83570 147.50746 24 ft 15 kts 315°
2026-04-21 09:12 -42.83491 147.50640 23 ft 17 kts 315°
2026-04-21 09:13 -42.83392 147.50546 23 ft 18 kts 359°
2026-04-21 09:13 -42.83319 147.50644 22 ft 15 kts 44°
2026-04-21 09:13 -42.83229 147.50651 24 ft 16 kts 315°
2026-04-21 09:13 -42.83146 147.50541 23 ft 18 kts 316°
2026-04-21 09:14 -42.83053 147.50412 24 ft 20 kts 315°
2026-04-21 09:14 -42.82950 147.50266 24 ft 22 kts 307°
2026-04-21 09:14 -42.82881 147.50087 22 ft 17 kts 321°
2026-04-21 09:14 -42.82865 147.50079 22 ft 2 kts
2026-04-21 09:15 -42.82846 147.50110 22 ft 7 kts 77°
2026-04-21 09:15 -42.82880 147.50177 22 ft 11 kts 134°
2026-04-21 09:15 -42.82939 147.50260 24 ft 14 kts 132°
2026-04-21 09:15 -42.83131 147.50526 23 ft 81 kts 135°
2026-04-21 09:16 -42.83721 147.51330 25 ft 153 kts 136°
2026-04-21 09:16 -42.84626 147.52407 425 ft 180 kts 141°
2026-04-21 09:16 -42.85598 147.53434 1302 ft 175 kts 135°
2026-04-21 09:16 -42.86469 147.54514 2077 ft 164 kts 125°
2026-04-21 09:17 -42.87283 147.55755 2148 ft 189 kts 123°
2026-04-21 09:17 -42.88208 147.57218 2130 ft 219 kts 125°
2026-04-21 09:17 -42.89284 147.58880 2158 ft 248 kts 126°
2026-04-21 09:17 -42.90489 147.60682 2289 ft 264 kts 128°
2026-04-21 09:18 -42.91759 147.62510 2875 ft 266 kts 129°
2026-04-21 09:18 -42.92762 147.64603 3327 ft 264 kts 104°
2026-04-21 09:18 -42.92931 147.67059 3823 ft 261 kts 78°
2026-04-21 09:18 -42.92615 147.69496 4372 ft 261 kts 74°
2026-04-21 09:19 -42.91875 147.71709 4944 ft 255 kts 49°
2026-04-21 09:19 -42.90539 147.73273 5463 ft 255 kts 27°
2026-04-21 09:19 -42.88898 147.74189 5977 ft 256 kts 20°
2026-04-21 09:19 -42.87170 147.74846 6439 ft 260 kts
2026-04-21 09:20 -42.85364 147.74866 6935 ft 261 kts 354°
2026-04-21 09:20 -42.83550 147.74618 7386 ft 263 kts 355°
2026-04-21 09:20 -42.81722 147.74378 7823 ft 266 kts 355°
2026-04-21 09:20 -42.79874 147.74139 8249 ft 267 kts 355°
2026-04-21 09:21 -42.78011 147.73902 8651 ft 271 kts 356°
2026-04-21 09:21 -42.76128 147.73665 9103 ft 273 kts 356°
2026-04-21 09:21 -42.74227 147.73426 9504 ft 276 kts 356°
2026-04-21 09:21 -42.72319 147.73181 9914 ft 277 kts 356°
2026-04-21 09:22 -42.70388 147.72754 10140 ft 288 kts 347°
2026-04-21 09:22 -42.68486 147.71811 10485 ft 290 kts 338°
2026-04-21 09:22 -42.66636 147.70692 10691 ft 296 kts 338°
2026-04-21 09:22 -42.64713 147.69545 10818 ft 305 kts 338°
2026-04-21 09:23 -42.62749 147.68375 10942 ft 311 kts 338°
2026-04-21 09:23 -42.60765 147.67156 11059 ft 317 kts 336°
2026-04-21 09:23 -42.58786 147.65787 11190 ft 321 kts 334°
2026-04-21 09:23 -42.56812 147.64332 11336 ft 324 kts 333°
2026-04-21 09:24 -42.54840 147.62845 11533 ft 325 kts 333°
2026-04-21 09:24 -42.52854 147.61350 11698 ft 326 kts 333°
2026-04-21 09:24 -42.50867 147.59862 11872 ft 327 kts 333°
2026-04-21 09:24 -42.48867 147.58378 12044 ft 328 kts 334°
2026-04-21 09:25 -42.46862 147.56898 12229 ft 329 kts 333°
2026-04-21 09:25 -42.44848 147.55422 12381 ft 330 kts 333°
2026-04-21 09:25 -42.42819 147.53943 12549 ft 331 kts 333°
2026-04-21 09:25 -42.40792 147.52466 12716 ft 332 kts 333°
2026-04-21 09:26 -42.38763 147.50988 12869 ft 332 kts 333°
2026-04-21 09:26 -42.36721 147.49504 13021 ft 333 kts 333°
2026-04-21 09:26 -42.35372 147.48523 13116 ft 334 kts 333°
2026-04-21 09:26 -42.32625 147.46521 13327 ft 335 kts 333°
2026-04-21 09:27 -42.31273 147.45541 13489 ft 333 kts 333°
2026-04-21 09:27 -42.29278 147.44095 14075 ft 320 kts 333°
2026-04-21 09:27 -42.27325 147.42678 14383 ft 318 kts 334°
2026-04-21 09:27 -42.24742 147.40806 14658 ft 319 kts 333°
2026-04-21 09:28 -42.23428 147.39851 14793 ft 319 kts 333°
2026-04-21 09:28 -42.21462 147.38425 15004 ft 320 kts 333°
2026-04-21 09:28 -42.19463 147.37113 15189 ft 320 kts 341°
2026-04-21 09:28 -42.17317 147.36293 15377 ft 320 kts 351°
2026-04-21 09:29 -42.15128 147.35780 15552 ft 321 kts 351°
2026-04-21 09:29 -42.12968 147.35265 15748 ft 322 kts 351°
2026-04-21 09:29 -42.10713 147.34722 15930 ft 323 kts 351°
2026-04-21 09:29 -42.08506 147.34187 16104 ft 324 kts 351°
2026-04-21 09:30 -42.06288 147.33653 16277 ft 325 kts 351°
2026-04-21 09:30 -42.04062 147.33120 16454 ft 325 kts 351°
2026-04-21 09:30 -42.01823 147.32581 16607 ft 327 kts 351°
2026-04-21 09:30 -41.99590 147.32042 16770 ft 328 kts 351°
2026-04-21 09:31 -41.97351 147.31504 16894 ft 330 kts 351°
2026-04-21 09:31 -41.95070 147.30962 17030 ft 332 kts 351°
2026-04-21 09:31 -41.92789 147.30424 17181 ft 333 kts 351°
2026-04-21 09:31 -41.90516 147.29887 17333 ft 334 kts 351°
2026-04-21 09:32 -41.88212 147.29337 17486 ft 334 kts 351°
2026-04-21 09:32 -41.85925 147.28792 17633 ft 335 kts 351°
2026-04-21 09:32 -41.83632 147.28251 17781 ft 336 kts 351°
2026-04-21 09:32 -41.81320 147.27704 17913 ft 337 kts 350°
2026-04-21 09:33 -41.79162 147.27191 18018 ft 338 kts 350°
2026-04-21 09:33 -41.76831 147.26636 18160 ft 340 kts 349°
2026-04-21 09:33 -41.74706 147.26129 18264 ft 344 kts 349°
2026-04-21 09:33 -41.72416 147.25583 18414 ft 344 kts 350°
2026-04-21 09:34 -41.70061 147.25023 18551 ft 344 kts 350°
2026-04-21 09:34 -41.67717 147.24471 18902 ft 342 kts 350°
2026-04-21 09:34 -41.65362 147.23918 19253 ft 344 kts 350°
2026-04-21 09:34 -41.63004 147.23363 19599 ft 346 kts 350°
2026-04-21 09:35 -41.60626 147.22801 19951 ft 347 kts 350°
2026-04-21 09:35 -41.58249 147.22240 20311 ft 348 kts 350°
2026-04-21 09:35 -41.55855 147.21674 20681 ft 349 kts 349°
2026-04-21 09:35 -41.53511 147.20837 21047 ft 350 kts 339°
2026-04-21 09:36 -41.51253 147.19618 21427 ft 350 kts 337°
2026-04-21 09:36 -41.49005 147.18389 21828 ft 350 kts 337°
2026-04-21 09:36 -41.46762 147.17174 22210 ft 350 kts 337°
2026-04-21 09:36 -41.44508 147.15954 22599 ft 350 kts 337°
2026-04-21 09:37 -41.42249 147.14732 22991 ft 349 kts 337°
2026-04-21 09:37 -41.39989 147.13506 23398 ft 348 kts 337°
2026-04-21 09:37 -41.37750 147.12293 23798 ft 347 kts 337°
2026-04-21 09:37 -41.35492 147.11070 23950 ft 354 kts 336°
2026-04-21 09:38 -41.33198 147.09828 24074 ft 360 kts 336°
2026-04-21 09:38 -41.30864 147.08564 24192 ft 365 kts 336°
2026-04-21 09:38 -41.28493 147.07282 24301 ft 370 kts 336°
2026-04-21 09:38 -41.26095 147.05985 24418 ft 374 kts 337°
2026-04-21 09:39 -41.23673 147.04678 24534 ft 377 kts 337°
2026-04-21 09:39 -41.21228 147.03361 24651 ft 380 kts 337°
2026-04-21 09:39 -41.18773 147.02040 24769 ft 383 kts 337°
2026-04-21 09:39 -41.16292 147.00706 24884 ft 385 kts 337°
2026-04-21 09:40 -41.13815 146.99377 24999 ft 386 kts 337°
2026-04-21 09:40 -41.11305 146.98036 25115 ft 388 kts 337°
2026-04-21 09:40 -41.08802 146.96699 25235 ft 389 kts 336°
2026-04-21 09:40 -41.06293 146.95355 25353 ft 389 kts 336°
2026-04-21 09:41 -41.03742 146.93987 25463 ft 390 kts 336°
2026-04-21 09:41 -41.01272 146.92665 25576 ft 390 kts 335°
2026-04-21 09:41 -40.98751 146.91315 25699 ft 390 kts 336°
2026-04-21 09:41 -40.96240 146.89965 25820 ft 389 kts 336°
2026-04-21 09:42 -40.93734 146.88620 25926 ft 389 kts 335°
2026-04-21 09:42 -40.91226 146.87280 26048 ft 388 kts 336°
2026-04-21 09:42 -40.88727 146.85946 26167 ft 387 kts 336°
2026-04-21 09:42 -40.86230 146.84622 26278 ft 386 kts 336°
2026-04-21 09:43 -40.83738 146.83302 26413 ft 385 kts 336°
2026-04-21 09:43 -40.81233 146.81976 26527 ft 382 kts 336°
2026-04-21 09:43 -40.78772 146.80670 26649 ft 379 kts 336°
2026-04-21 09:43 -40.76342 146.79379 26768 ft 375 kts 336°
2026-04-21 09:44 -40.73933 146.78099 26890 ft 371 kts 335°
2026-04-21 09:44 -40.71549 146.76828 27014 ft 368 kts 335°
2026-04-21 09:44 -40.69187 146.75574 27132 ft 364 kts 336°
2026-04-21 09:44 -40.66843 146.74330 27259 ft 361 kts 335°
2026-04-21 09:45 -40.64530 146.73106 27387 ft 358 kts 335°
2026-04-21 09:45 -40.62221 146.71892 27513 ft 355 kts 336°
2026-04-21 09:45 -40.59930 146.70687 27623 ft 353 kts 335°
2026-04-21 09:45 -40.57664 146.69493 27752 ft 350 kts 335°
2026-04-21 09:46 -40.55413 146.68307 27875 ft 347 kts 335°
2026-04-21 09:46 -40.53185 146.67129 28003 ft 345 kts 335°
2026-04-21 09:46 -40.50960 146.65954 28129 ft 342 kts 336°
2026-04-21 09:46 -40.48760 146.64795 28260 ft 340 kts 334°
2026-04-21 09:47 -40.46573 146.63641 28391 ft 337 kts 335°
2026-04-21 09:47 -40.44400 146.62497 28525 ft 335 kts 335°
2026-04-21 09:47 -40.40023 146.60199 28442 ft 342 kts 334°
2026-04-21 09:48 -40.35597 146.57883 28438 ft 345 kts 335°
2026-04-21 09:48 -40.31112 146.55525 28441 ft 348 kts 335°
2026-04-21 09:49 -40.26598 146.53156 28435 ft 351 kts 335°
2026-04-21 09:49 -40.22048 146.50788 28436 ft 353 kts 335°
2026-04-21 09:50 -40.17461 146.48403 28426 ft 356 kts 334°
2026-04-21 09:50 -40.12855 146.46006 28426 ft 358 kts 335°
2026-04-21 09:51 -40.08185 146.43596 28436 ft 369 kts 336°
2026-04-21 09:51 -40.05749 146.42349 28478 ft 381 kts 335°
2026-04-21 09:51 -40.03264 146.41054 28610 ft 391 kts 335°
2026-04-21 09:52 -40.00701 146.39713 28748 ft 401 kts 334°
2026-04-21 09:52 -39.98076 146.38338 28887 ft 412 kts 335°
2026-04-21 09:52 -39.95398 146.36943 29020 ft 421 kts 335°
2026-04-21 09:52 -39.92623 146.35510 29153 ft 431 kts 336°
2026-04-21 09:53 -39.89820 146.34072 29290 ft 439 kts 336°
2026-04-21 09:53 -39.86944 146.32601 29434 ft 446 kts 336°
2026-04-21 09:53 -39.84045 146.31121 29697 ft 451 kts 336°
2026-04-21 09:53 -39.81108 146.29623 30036 ft 454 kts 336°
2026-04-21 09:54 -39.78163 146.28123 30358 ft 456 kts 335°
2026-04-21 09:54 -39.75193 146.26607 30668 ft 459 kts 336°
2026-04-21 09:54 -39.72226 146.25086 30970 ft 460 kts 335°
2026-04-21 09:54 -39.69241 146.23550 31258 ft 462 kts 336°
2026-04-21 09:55 -39.66235 146.22009 31569 ft 464 kts 335°
2026-04-21 09:55 -39.63240 146.20483 31974 ft 463 kts 335°
2026-04-21 09:55 -39.60253 146.18963 32413 ft 461 kts 335°
2026-04-21 09:55 -39.57288 146.17457 32847 ft 459 kts 336°
2026-04-21 09:56 -39.54304 146.15943 33273 ft 458 kts 336°
2026-04-21 09:56 -39.51332 146.14437 33698 ft 457 kts 336°
2026-04-21 09:56 -39.48368 146.12933 34135 ft 456 kts 335°
2026-04-21 09:56 -39.45420 146.11436 34339 ft 455 kts 336°
2026-04-21 09:57 -39.39561 146.08473 34364 ft 450 kts 335°
2026-04-21 09:57 -39.33732 146.05512 34364 ft 449 kts 336°
2026-04-21 09:58 -39.30840 146.04049 33886 ft 447 kts 336°
2026-04-21 09:58 -39.27945 146.02590 33393 ft 443 kts 336°
2026-04-21 09:58 -39.25082 146.01155 32906 ft 440 kts 336°
2026-04-21 09:58 -39.22241 145.99732 32438 ft 436 kts 336°
2026-04-21 09:59 -39.19420 145.98318 31938 ft 433 kts 336°
2026-04-21 09:59 -39.16628 145.96917 31474 ft 430 kts 336°
2026-04-21 09:59 -39.13845 145.95514 31013 ft 427 kts 335°
2026-04-21 09:59 -39.11082 145.94124 30555 ft 425 kts 336°
2026-04-21 10:00 -39.08349 145.92749 30073 ft 422 kts 335°
2026-04-21 10:00 -39.05623 145.91380 29638 ft 418 kts 335°
2026-04-21 10:00 -39.02928 145.90033 29225 ft 414 kts 336°
2026-04-21 10:00 -39.00246 145.88700 28806 ft 411 kts 336°
2026-04-21 10:01 -38.97598 145.87379 28384 ft 408 kts 336°
2026-04-21 10:01 -38.94953 145.86054 27971 ft 406 kts 335°
2026-04-21 10:01 -38.92330 145.84762 27565 ft 404 kts 336°
2026-04-21 10:01 -38.89718 145.83473 27312 ft 398 kts 335°
2026-04-21 10:02 -38.84585 145.80907 26504 ft 395 kts 336°
2026-04-21 10:02 -38.82034 145.79625 26073 ft 394 kts 336°
2026-04-21 10:02 -38.79481 145.78343 25636 ft 393 kts 337°
2026-04-21 10:03 -38.76938 145.77070 25206 ft 393 kts 336°
2026-04-21 10:03 -38.74389 145.75798 24755 ft 393 kts 337°
2026-04-21 10:03 -38.71843 145.74533 24306 ft 393 kts 337°
2026-04-21 10:03 -38.69301 145.73274 23834 ft 393 kts 337°
2026-04-21 10:04 -38.66743 145.72013 23335 ft 392 kts 337°
2026-04-21 10:04 -38.64193 145.70756 22883 ft 390 kts 337°
2026-04-21 10:04 -38.61670 145.69515 22428 ft 387 kts 337°
2026-04-21 10:04 -38.59160 145.68279 21971 ft 385 kts 337°
2026-04-21 10:05 -38.56671 145.67052 21514 ft 383 kts 338°
2026-04-21 10:05 -38.54997 145.66226 21198 ft 381 kts 337°
2026-04-21 10:05 -38.52529 145.65010 20755 ft 379 kts 337°
2026-04-21 10:05 -38.50105 145.63818 20315 ft 377 kts 337°
2026-04-21 10:06 -38.47793 145.62313 19878 ft 372 kts 323°
2026-04-21 10:06 -38.45838 145.60190 19442 ft 367 kts 310°
2026-04-21 10:06 -38.44244 145.57676 19017 ft 363 kts 306°
2026-04-21 10:06 -38.42690 145.55158 18576 ft 362 kts 306°
2026-04-21 10:07 -38.41124 145.52641 18106 ft 359 kts 306°
2026-04-21 10:07 -38.39575 145.50163 17686 ft 356 kts 306°
2026-04-21 10:07 -38.38040 145.47707 17272 ft 352 kts 306°
2026-04-21 10:07 -38.36523 145.45274 16843 ft 350 kts 306°
2026-04-21 10:08 -38.35013 145.42850 16420 ft 347 kts 306°
2026-04-21 10:08 -38.33520 145.40454 16018 ft 345 kts 307°
2026-04-21 10:08 -38.32031 145.38068 15609 ft 342 kts 307°
2026-04-21 10:08 -38.30558 145.35705 15203 ft 340 kts 307°
2026-04-21 10:09 -38.29087 145.33351 14795 ft 338 kts 307°
2026-04-21 10:09 -38.27627 145.31016 14392 ft 337 kts 307°
2026-04-21 10:09 -38.26169 145.28687 13976 ft 336 kts 307°
2026-04-21 10:09 -38.24718 145.26370 13549 ft 333 kts 307°
2026-04-21 10:10 -38.23282 145.24077 13147 ft 330 kts 308°
2026-04-21 10:10 -38.21853 145.21805 12750 ft 328 kts 307°
2026-04-21 10:10 -38.20432 145.19547 12353 ft 325 kts 307°
2026-04-21 10:10 -38.19025 145.17306 11957 ft 323 kts 308°
2026-04-21 10:11 -38.17631 145.15083 11558 ft 322 kts 308°
2026-04-21 10:11 -38.16239 145.12863 11165 ft 320 kts 307°
2026-04-21 10:11 -38.14853 145.10657 10771 ft 318 kts 308°
2026-04-21 10:11 -38.13471 145.08458 10371 ft 317 kts 308°
2026-04-21 10:12 -38.12121 145.06312 10245 ft 306 kts 308°
2026-04-21 10:12 -38.10807 145.04233 10060 ft 298 kts 308°
2026-04-21 10:12 -38.09513 145.02193 9741 ft 295 kts 308°
2026-04-21 10:12 -38.08235 145.00181 9403 ft 292 kts 308°
2026-04-21 10:13 -38.06955 144.98170 9007 ft 292 kts 308°
2026-04-21 10:13 -38.05709 144.96216 9001 ft 277 kts 308°
2026-04-21 10:13 -38.04505 144.94329 8526 ft 278 kts 309°
2026-04-21 10:13 -38.03259 144.92386 7780 ft 281 kts 311°
2026-04-21 10:14 -38.01755 144.90799 7053 ft 283 kts 331°
2026-04-21 10:14 -37.99911 144.89987 6425 ft 280 kts 351°
2026-04-21 10:14 -37.98013 144.89641 6029 ft 269 kts 352°
2026-04-21 10:14 -37.96224 144.89306 5689 ft 258 kts 351°
2026-04-21 10:15 -37.94497 144.88982 5368 ft 247 kts 352°
2026-04-21 10:15 -37.92830 144.88672 5048 ft 236 kts 352°
2026-04-21 10:15 -37.91234 144.88375 4719 ft 226 kts 352°
2026-04-21 10:15 -37.89706 144.88082 4395 ft 218 kts 352°
2026-04-21 10:16 -37.88234 144.87796 4070 ft 211 kts 351°
2026-04-21 10:16 -37.86816 144.87520 3790 ft 201 kts 352°
2026-04-21 10:16 -37.85465 144.87261 3464 ft 193 kts 351°
2026-04-21 10:16 -37.84160 144.87015 3130 ft 186 kts 352°
2026-04-21 10:17 -37.82912 144.86782 3011 ft 170 kts 352°
2026-04-21 10:17 -37.81792 144.86572 2923 ft 159 kts 352°
2026-04-21 10:17 -37.80699 144.86368 2727 ft 160 kts 351°
2026-04-21 10:17 -37.79595 144.86160 2501 ft 160 kts 351°
2026-04-21 10:18 -37.78496 144.85954 2300 ft 159 kts 351°
2026-04-21 10:18 -37.77406 144.85751 2082 ft 157 kts 351°
2026-04-21 10:18 -37.76356 144.85552 1869 ft 148 kts 351°
2026-04-21 10:18 -37.75366 144.85367 1683 ft 141 kts 352°
2026-04-21 10:19 -37.74417 144.85192 1504 ft 136 kts 351°
2026-04-21 10:19 -37.73492 144.85022 1307 ft 135 kts 353°
2026-04-21 10:19 -37.72566 144.84844 1103 ft 135 kts 352°
2026-04-21 10:19 -37.71643 144.84646 912 ft 135 kts 350°
2026-04-21 10:20 -37.70736 144.84484 778 ft 133 kts 354°
2026-04-21 10:20 -37.69809 144.84313 598 ft 134 kts 352°
2026-04-21 10:20 -37.68897 144.84159 459 ft 132 kts 353°
2026-04-21 10:20 -37.67995 144.83986 365 ft 121 kts 352°
2026-04-21 10:21 -37.67315 144.83862 374 ft 63 kts 351°
2026-04-21 10:21 -37.67086 144.83838 383 ft 24 kts 360°
2026-04-21 10:21 -37.66929 144.83870 388 ft 22 kts 18°
2026-04-21 10:21 -37.66810 144.83933 392 ft 14 kts 31°
2026-04-21 10:22 -37.66804 144.83989 392 ft 6 kts 130°
2026-04-21 10:22 -37.66856 144.83999 390 ft 10 kts 171°
2026-04-21 10:22 -37.66944 144.84012 387 ft 15 kts 173°
2026-04-21 10:22 -37.67063 144.84035 383 ft 19 kts 171°
2026-04-21 10:23 -37.67212 144.84063 379 ft 24 kts 173°
2026-04-21 10:23 -37.67392 144.84097 374 ft 28 kts 172°
2026-04-21 10:23 -37.67602 144.84135 368 ft 33 kts 171°
2026-04-21 10:23 -37.67810 144.84177 367 ft 15 kts 168°
2026-04-21 10:24 -37.67853 144.84284 364 ft 16 kts 78°
2026-04-21 10:24 -37.67835 144.84428 363 ft 16 kts 82°
2026-04-21 10:24 -37.67820 144.84557 365 ft 13 kts 72°
2026-04-21 10:24 -37.67798 144.84590 367 ft 0 kts 27°
2026-04-21 10:25 -37.67789 144.84594 367 ft 8 kts 23°
2026-04-21 10:26 -37.67739 144.84677 371 ft 11 kts 76°
2026-04-21 10:26 -37.67728 144.84721 372 ft 3 kts 38°
2026-04-21 10:26 -37.67709 144.84720 373 ft 2 kts 354°
2026-04-21 10:26 -37.67694 144.84717 373 ft 2 kts 353°
2026-04-21 10:27 -37.67682 144.84715 374 ft 2 kts 352°
2026-04-21 10:27 -37.67670 144.84713 374 ft 2 kts 351°
2026-04-21 10:27 -37.67661 144.84711 374 ft 1 kts 352°
2026-04-21 10:27 -37.67656 144.84710 375 ft 0 kts 351°
2026-04-21 10:28 -37.67653 144.84710 375 ft 0 kts 351°